When you browse on this site, cookies collect data to enhance your experience and personalize the content and advertising you see.
Visit our Privacy Policy to learn more. By continuing to use the site, you agree to this use of cookies and data.

Météo par heure à Achtarak

Ce jour, 9 Juillet, Jeudi

Heure Température Précipitation Vent Pression Humidité
00:00 +23°C° 0.1 mm 2 m/s 657 mmHg 54%
01:00 +23°C° 0 mm 2 m/s 657 mmHg 56%
02:00 +21°C° 0 mm 2 m/s 657 mmHg 58%
03:00 +20°C° 0 mm 2 m/s 657 mmHg 60%
04:00 +21°C° 0 mm 2 m/s 657 mmHg 60%
05:00 +21°C° 0 mm 2 m/s 657 mmHg 60%
06:00 +23°C° 0 mm 1 m/s 658 mmHg 60%
07:00 +24°C° 0.1 mm 1 m/s 658 mmHg 56%
08:00 +26°C° 0.1 mm 1 m/s 658 mmHg 52%
09:00 +27°C° 0.1 mm 1 m/s 658 mmHg 48%
10:00 +28°C° 0.4 mm 1 m/s 658 mmHg 44%
11:00 +30°C° 0.4 mm 2 m/s 659 mmHg 40%
12:00 +31°C° 0.4 mm 2 m/s 659 mmHg 36%
13:00 +32°C° 0.3 mm 2 m/s 659 mmHg 35%
14:00 +32°C° 0.3 mm 2 m/s 658 mmHg 34%
15:00 +33°C° 0.3 mm 1 m/s 658 mmHg 33%
16:00 +30°C° 0.7 mm 2 m/s 658 mmHg 43%
17:00 +27°C° 0.7 mm 2 m/s 658 mmHg 52%
18:00 +25°C° 0.7 mm 3 m/s 657 mmHg 61%
19:00 +24°C° 0.2 mm 3 m/s 658 mmHg 63%
20:00 +24°C° 0.2 mm 2 m/s 658 mmHg 64%
21:00 +24°C° 0.2 mm 2 m/s 659 mmHg 65%
22:00 +23°C° 0.2 mm 2 m/s 658 mmHg 67%
23:00 +21°C° 0.2 mm 2 m/s 658 mmHg 69%

Demain, 10 Juillet, Vendredi

Heure Température Précipitation Vent Pression Humidité
00:00 +20°C° 0.2 mm 2 m/s 658 mmHg 71%
01:00 +21°C° 0.2 mm 1 m/s 658 mmHg 72%
02:00 +20°C° 0.2 mm 1 m/s 658 mmHg 72%
03:00 +20°C° 0.2 mm 1 m/s 657 mmHg 72%
04:00 +20°C° 0 mm 1 m/s 658 mmHg 71%
05:00 +21°C° 0 mm 1 m/s 658 mmHg 70%
06:00 +22°C° 0 mm 1 m/s 658 mmHg 69%
07:00 +23°C° 0.5 mm 1 m/s 658 mmHg 65%
08:00 +24°C° 0.5 mm 2 m/s 659 mmHg 60%
09:00 +26°C° 0.5 mm 2 m/s 659 mmHg 56%
10:00 +27°C° 0.8 mm 2 m/s 659 mmHg 52%
11:00 +28°C° 0.8 mm 2 m/s 659 mmHg 48%
12:00 +29°C° 0.8 mm 2 m/s 659 mmHg 45%
13:00 +30°C° 0.5 mm 2 m/s 659 mmHg 43%
14:00 +30°C° 0.5 mm 2 m/s 659 mmHg 42%
15:00 +31°C° 0.5 mm 2 m/s 659 mmHg 40%
16:00 +29°C° 0.7 mm 2 m/s 658 mmHg 48%
17:00 +27°C° 0.7 mm 2 m/s 658 mmHg 55%
18:00 +25°C° 0.7 mm 3 m/s 658 mmHg 62%
19:00 +24°C° 0.4 mm 2 m/s 658 mmHg 66%
20:00 +23°C° 0.4 mm 2 m/s 658 mmHg 69%
21:00 +22°C° 0.4 mm 1 m/s 658 mmHg 72%
22:00 +21°C° 0.2 mm 1 m/s 658 mmHg 73%
23:00 +21°C° 0.2 mm 1 m/s 658 mmHg 73%

Après-demain, 11 Juillet, Samedi

Heure Température Précipitation Vent Pression Humidité
00:00 +20°C° 0.2 mm 1 m/s 658 mmHg 74%
01:00 +20°C° 0.4 mm 1 m/s 658 mmHg 74%
02:00 +20°C° 0.4 mm 1 m/s 658 mmHg 75%
03:00 +19°C° 0.4 mm 1 m/s 657 mmHg 75%
04:00 +20°C° 0.5 mm 1 m/s 658 mmHg 75%
05:00 +20°C° 0.5 mm 1 m/s 658 mmHg 75%
06:00 +21°C° 0.5 mm 1 m/s 658 mmHg 74%
07:00 +22°C° 0.3 mm 1 m/s 658 mmHg 69%
08:00 +24°C° 0.3 mm 1 m/s 659 mmHg 64%
09:00 +25°C° 0.3 mm 1 m/s 659 mmHg 58%
10:00 +27°C° 0.5 mm 1 m/s 659 mmHg 54%
11:00 +28°C° 0.5 mm 1 m/s 659 mmHg 49%
12:00 +29°C° 0.5 mm 2 m/s 659 mmHg 44%
13:00 +30°C° 0.2 mm 2 m/s 659 mmHg 42%
14:00 +30°C° 0.2 mm 2 m/s 659 mmHg 41%
15:00 +31°C° 0.2 mm 2 m/s 658 mmHg 40%
16:00 +30°C° 0.4 mm 3 m/s 658 mmHg 43%
17:00 +29°C° 0.4 mm 3 m/s 658 mmHg 46%
18:00 +29°C° 0.4 mm 4 m/s 658 mmHg 49%
19:00 +26°C° 0.7 mm 3 m/s 658 mmHg 56%
20:00 +24°C° 0.7 mm 3 m/s 658 mmHg 63%
21:00 +21°C° 0.7 mm 3 m/s 658 mmHg 70%
22:00 +21°C° 0.7 mm 3 m/s 658 mmHg 72%
23:00 +21°C° 0.7 mm 2 m/s 657 mmHg 73%

12 Juillet, Dimanche

Heure Température Précipitation Vent Pression Humidité
00:00 +20°C° 0.7 mm 2 m/s 657 mmHg 75%
01:00 +20°C° 0.2 mm 2 m/s 657 mmHg 76%
02:00 +21°C° 0.2 mm 1 m/s 657 mmHg 77%
03:00 +20°C° 0.2 mm 1 m/s 656 mmHg 79%
04:00 +21°C° 0 mm 1 m/s 656 mmHg 77%
05:00 +21°C° 0 mm 1 m/s 657 mmHg 75%
06:00 +21°C° 0 mm 1 m/s 657 mmHg 73%
07:00 +23°C° 0.2 mm 1 m/s 657 mmHg 68%
08:00 +24°C° 0.2 mm 1 m/s 657 mmHg 63%
09:00 +25°C° 0.2 mm 1 m/s 657 mmHg 58%
10:00 +27°C° 0.5 mm 2 m/s 657 mmHg 54%
11:00 +28°C° 0.5 mm 2 m/s 657 mmHg 50%
12:00 +29°C° 0.5 mm 2 m/s 657 mmHg 46%
13:00 +30°C° 0.5 mm 2 m/s 657 mmHg 43%
14:00 +30°C° 0.5 mm 2 m/s 657 mmHg 41%
15:00 +31°C° 0.5 mm 2 m/s 657 mmHg 39%
16:00 +30°C° 0.2 mm 2 m/s 657 mmHg 42%
17:00 +30°C° 0.2 mm 3 m/s 656 mmHg 44%
18:00 +29°C° 0.2 mm 4 m/s 656 mmHg 47%
19:00 +27°C° 0.2 mm 4 m/s 656 mmHg 50%
20:00 +26°C° 0.2 mm 4 m/s 656 mmHg 54%
21:00 +23°C° 0.2 mm 4 m/s 656 mmHg 58%
22:00 +22°C° 0.3 mm 3 m/s 656 mmHg 61%
23:00 +21°C° 0.3 mm 3 m/s 656 mmHg 64%

13 Juillet, Lundi

Heure Température Précipitation Vent Pression Humidité
00:00 +21°C° 0.3 mm 2 m/s 655 mmHg 67%
01:00 +20°C° 0.6 mm 2 m/s 655 mmHg 69%
02:00 +20°C° 0.6 mm 2 m/s 655 mmHg 71%
03:00 +20°C° 0.6 mm 2 m/s 654 mmHg 73%
04:00 +21°C° 0.3 mm 1 m/s 655 mmHg 72%
05:00 +22°C° 0.3 mm 1 m/s 655 mmHg 71%
06:00 +22°C° 0.3 mm 1 m/s 655 mmHg 70%
07:00 +24°C° 0.2 mm 1 m/s 655 mmHg 64%
08:00 +25°C° 0.2 mm 1 m/s 655 mmHg 58%
09:00 +27°C° 0.2 mm 1 m/s 655 mmHg 52%
10:00 +28°C° 0.3 mm 1 m/s 655 mmHg 48%
11:00 +29°C° 0.3 mm 2 m/s 655 mmHg 45%
12:00 +30°C° 0.3 mm 2 m/s 655 mmHg 41%
13:00 +31°C° 0.2 mm 2 m/s 655 mmHg 39%
14:00 +31°C° 0.2 mm 2 m/s 655 mmHg 37%
15:00 +32°C° 0.2 mm 2 m/s 655 mmHg 35%
16:00 +29°C° 0.6 mm 2 m/s 654 mmHg 45%
17:00 +27°C° 0.6 mm 3 m/s 654 mmHg 54%
18:00 +23°C° 0.6 mm 4 m/s 653 mmHg 64%
19:00 +22°C° 0.3 mm 3 m/s 654 mmHg 65%
20:00 +23°C° 0.3 mm 2 m/s 654 mmHg 66%
21:00 +21°C° 0.3 mm 2 m/s 655 mmHg 67%
22:00 +21°C° 0.1 mm 2 m/s 655 mmHg 67%
23:00 +21°C° 0.1 mm 1 m/s 655 mmHg 68%

14 Juillet, Mardi

Heure Température Précipitation Vent Pression Humidité
00:00 +21°C° 0.1 mm 1 m/s 655 mmHg 68%
01:00 +21°C° 0 mm 1 m/s 655 mmHg 70%
02:00 +20°C° 0 mm 1 m/s 655 mmHg 71%
03:00 +19°C° 0 mm 1 m/s 655 mmHg 72%
04:00 +20°C° 0 mm 1 m/s 655 mmHg 70%
05:00 +21°C° 0 mm 1 m/s 655 mmHg 68%
06:00 +21°C° 0 mm 1 m/s 656 mmHg 66%
07:00 +23°C° 0.1 mm 1 m/s 656 mmHg 61%
08:00 +25°C° 0.1 mm 1 m/s 656 mmHg 56%
09:00 +26°C° 0.1 mm 1 m/s 657 mmHg 51%
10:00 +28°C° 0.2 mm 1 m/s 657 mmHg 47%
11:00 +29°C° 0.2 mm 2 m/s 657 mmHg 43%
12:00 +30°C° 0.2 mm 2 m/s 657 mmHg 40%
13:00 +31°C° 0.2 mm 1 m/s 657 mmHg 37%
14:00 +32°C° 0.2 mm 1 m/s 657 mmHg 35%
15:00 +32°C° 0.2 mm 1 m/s 657 mmHg 32%
16:00 +32°C° 0.1 mm 1 m/s 657 mmHg 36%
17:00 +31°C° 0.1 mm 2 m/s 657 mmHg 39%
18:00 +31°C° 0.1 mm 2 m/s 657 mmHg 43%
19:00 +29°C° 0 mm 3 m/s 657 mmHg 47%
20:00 +26°C° 0 mm 3 m/s 657 mmHg 52%
21:00 +24°C° 0 mm 3 m/s 657 mmHg 56%
22:00 +24°C° 0.3 mm 3 m/s 657 mmHg 59%
23:00 +22°C° 0.3 mm 3 m/s 657 mmHg 62%
Voir plus